sat.trackr.live / text

‹ back to catalog

STARLINK-31436

NORAD 59019 · 2024-036X

PAYLOAD ACTIVE UNKNOWN

§ Identity

Operator
Country
US
Launch date
2024-02-23
Launch site
AFWTR
Launch vehicle
Mass (kg)
RCS (m²)

Purposes: comms

External: N2YO · Heavens-Above · Gunter

§ Orbital elements

Epoch: 2026-09-20T12:46:19.785216Z

Period
93.85 min
Inclination
53.1558°
Eccentricity
0.0001683
Mean motion
15.34403125 rev/d
Perigee alt
461.5 km
Apogee alt
463.8 km
Semi-major
6,840.8 km
B*
1.3405e-5
RAAN
251.7427°
Arg perigee
80.0482°
Mean anomaly
280.0711°
Rev number
14,517

§ Raw data

STARLINK-314361 59019U 24036X   26263.53217344  .00000076  00000+0  13405-4 0  99962 59019  53.1558 251.7427 0001683  80.0482 280.0711 15.34403125145176

JSON: /api/v1/satellites/59019 · /tle

For live sub-satellite position, see the globe view (requires WebGL).

§ Visibility from observer

Set your observer location to see the next 7 days of passes ≥ 10°. The values pass through the URL so the page stays shareable.

No JS? Fill the form by hand. The geolocation button needs JavaScript.